Time,TemperatureF,DewpointF,PressureIn,WindDirection,WindDirectionDegrees,WindSpeedMPH,WindSpeedGustMPH,Humidity,HourlyPrecipIn,Conditions,Clouds,dailyrainin,SoftwareType,DateUTC
2013-09-18 00:12:00,56.0,54.0,30.05,SSE,148,0.0,4.0,93,0.00,,,0.11,,2013-09-18 07:12:00,
2013-09-18 00:22:00,56.0,54.0,30.04,SSE,164,2.0,5.0,93,0.00,,,0.11,,2013-09-18 07:22:00,
2013-09-18 00:42:00,56.0,54.0,30.05,SSE,164,1.0,5.0,93,0.00,,,0.11,,2013-09-18 07:42:00,
2013-09-18 00:52:00,56.0,54.0,30.05,SSE,164,2.0,4.0,93,0.00,,,0.11,,2013-09-18 07:52:00,
2013-09-18 01:11:00,56.0,54.0,30.05,SSE,163,3.0,5.0,93,0.00,,,0.11,,2013-09-18 08:11:00,
2013-09-18 01:22:00,56.0,54.0,30.05,SSE,162,3.0,6.0,94,0.00,,,0.11,,2013-09-18 08:22:00,
2013-09-18 01:42:00,56.0,54.0,30.05,South,177,5.0,7.0,94,0.00,,,0.11,,2013-09-18 08:42:00,
2013-09-18 01:52:00,56.0,54.0,30.06,South,173,4.0,6.0,94,0.00,,,0.11,,2013-09-18 08:52:00,
2013-09-18 02:12:00,56.0,54.0,30.06,South,172,3.0,5.0,94,0.00,,,0.11,,2013-09-18 09:12:00,
2013-09-18 02:22:00,56.0,54.0,30.07,South,175,2.0,5.0,94,0.00,,,0.11,,2013-09-18 09:22:00,
2013-09-18 02:43:00,56.0,54.0,30.07,South,175,2.0,4.0,94,0.00,,,0.11,,2013-09-18 09:43:00,
2013-09-18 02:53:00,56.0,54.0,30.07,South,172,4.0,6.0,94,0.00,,,0.11,,2013-09-18 09:53:00,
2013-09-18 03:13:00,55.0,53.0,30.07,South,172,0.0,4.0,94,0.00,,,0.11,,2013-09-18 10:13:00,
2013-09-18 03:23:00,55.0,53.0,30.07,South,175,6.0,9.0,94,0.00,,,0.11,,2013-09-18 10:23:00,
2013-09-18 03:53:00,55.0,53.0,30.07,SSE,167,4.0,7.0,94,0.00,,,0.11,,2013-09-18 10:53:00,
2013-09-18 04:12:00,55.0,53.0,30.07,SSE,162,0.0,6.0,94,0.00,,,0.11,,2013-09-18 11:12:00,
2013-09-18 04:22:00,55.0,53.0,30.07,SSE,164,1.0,4.0,94,0.00,,,0.11,,2013-09-18 11:22:00,
2013-09-18 04:42:00,55.0,54.0,30.07,South,170,4.0,7.0,95,0.00,,,0.11,,2013-09-18 11:42:00,
2013-09-18 04:52:00,55.0,54.0,30.08,South,172,3.0,6.0,95,0.00,,,0.11,,2013-09-18 11:52:00,
2013-09-18 05:12:00,55.0,54.0,30.08,South,173,4.0,6.0,95,0.00,,,0.11,,2013-09-18 12:12:00,
2013-09-18 05:22:00,55.0,54.0,30.08,SSE,150,5.0,7.0,95,0.00,,,0.11,,2013-09-18 12:22:00,
2013-09-18 05:42:00,55.0,54.0,30.08,South,175,3.0,6.0,95,0.00,,,0.11,,2013-09-18 12:42:00,
2013-09-18 05:52:00,54.0,53.0,30.08,South,175,2.0,3.0,95,0.00,,,0.11,,2013-09-18 12:52:00,
2013-09-18 06:11:00,54.0,53.0,30.08,South,181,2.0,6.0,95,0.00,,,0.11,,2013-09-18 13:11:00,
2013-09-18 21:01:00,57.0,55.0,30.03,North,11,0.0,0.0,92,0.00,,,0.01,,2013-09-19 04:01:00,
2013-09-18 21:14:00,56.0,54.0,30.03,North,11,0.0,0.0,92,0.00,,,0.01,,2013-09-19 04:14:00,
2013-09-18 21:25:00,55.0,53.0,30.03,North,11,0.0,0.0,92,0.00,,,0.01,,2013-09-19 04:25:00,
2013-09-18 21:43:00,55.0,53.0,30.03,North,11,0.0,0.0,92,0.00,,,0.01,,2013-09-19 04:43:00,
2013-09-18 21:53:00,54.0,52.0,30.02,North,11,0.0,0.0,92,0.00,,,0.01,,2013-09-19 04:53:00,
2013-09-18 22:13:00,54.0,52.0,30.02,North,11,0.0,0.0,92,0.00,,,0.01,,2013-09-19 05:13:00,
2013-09-18 22:23:00,54.0,52.0,30.01,East,91,1.0,5.0,93,0.00,,,0.01,,2013-09-19 05:23:00,
2013-09-18 22:43:00,56.0,54.0,30.01,East,94,5.0,8.0,94,0.00,,,0.01,,2013-09-19 05:43:00,
2013-09-18 22:52:00,56.0,54.0,30.00,East,100,4.0,8.0,93,0.00,,,0.01,,2013-09-19 05:52:00,
2013-09-18 23:12:00,57.0,55.0,29.99,ESE,113,10.0,15.0,93,0.00,,,0.01,,2013-09-19 06:12:00,
2013-09-18 23:22:00,57.0,55.0,29.99,East,94,12.0,16.0,93,0.00,,,0.01,,2013-09-19 06:22:00,
2013-09-18 23:43:00,56.0,54.0,29.99,ESE,108,11.0,17.0,92,0.00,,,0.01,,2013-09-19 06:43:00,
2013-09-18 23:52:00,56.0,54.0,29.99,ESE,112,12.0,18.0,92,0.00,,,0.01,,2013-09-19 06:52:00,